Location: Hradec Kralove
(50.2170°N, 15.8330°E)
Time: 20:11:45
(UTC+01:00)

Vanguard 3 - Visible Passes

Search period start: 07 February 2023 00:00
Search period end: 17 February 2023 00:00
Orbit: 510 x 3252 km, 33.3° (Epoch: 07 February)

Date Brightness Start Highest point End Pass type
(mag) Time Alt. Az. Time Alt. Az. Time Alt. Az.
07 Feb 9.8 17:31:46 10° SSW 17:37:29 22° SSE 17:45:41 10° ESE visible
07 Feb 9.8 19:40:22 10° SW 19:48:43 34° S 19:53:27 28° SE visible
07 Feb 10.3 21:51:15 10° WSW 21:57:53 28° SW 21:57:53 28° SW visible
08 Feb 9.7 18:26:27 10° SW 18:33:14 29° SSE 18:42:16 13° ESE visible
08 Feb 9.9 20:36:16 10° WSW 20:45:13 33° S 20:46:43 32° S visible
08 Feb 10.8 22:48:31 10° WSW 22:51:09 16° WSW 22:51:09 16° WSW visible
09 Feb 9.7 19:21:52 10° SW 19:29:22 31° S 19:35:34 22° SE visible
09 Feb 10.2 21:32:45 10° WSW 21:40:01 26° SSW 21:40:01 26° SSW visible
10 Feb 9.7 18:08:00 10° SW 18:14:01 26° SSE 18:23:12 10° ESE visible
10 Feb 10.0 20:17:48 10° WSW 20:25:46 29° S 20:28:53 26° SSE visible
10 Feb 10.7 22:30:17 10° WSW 22:33:20 16° SW 22:33:20 16° SW visible
11 Feb 9.7 19:03:26 10° SW 19:10:06 28° S 19:17:48 15° SE visible
11 Feb 10.3 21:14:24 10° WSW 21:22:15 23° SSW 21:22:15 23° SSW visible
12 Feb 9.6 17:49:35 10° SW 17:54:53 24° SSE 18:02:45 10° ESE visible
12 Feb 10.0 19:59:27 10° WSW 20:06:24 25° S 20:11:11 20° SSE visible
12 Feb 10.7 22:12:28 10° WSW 22:15:38 14° SW 22:15:38 14° SW visible
13 Feb 9.7 18:45:05 10° SW 18:50:55 25° S 18:59:35 10° SE visible
13 Feb 10.4 20:56:16 10° WSW 21:02:49 19° SSW 21:04:38 19° S visible
14 Feb 10.0 19:41:13 10° SW 19:47:08 21° S 19:53:41 13° SSE visible
14 Feb 10.8 21:55:34 10° SW 21:58:08 12° SSW 21:58:08 12° SSW visible
15 Feb 9.8 18:26:49 10° SW 18:31:47 21° S 18:38:50 10° SE visible
15 Feb 10.4 20:38:30 10° SW 20:43:27 15° SSW 20:47:14 13° S visible
16 Feb 10.1 19:23:11 10° SW 19:27:55 17° S 19:34:15 10° SSE visible
